Wind_Speed
15 13 10 4 3 7 6 3 1 2 1 5 4 4 5 4 3 2 5 2 2 5 4 2 3 2 1 3 5 5 6 7 7 5 4 5 5 10 11 11 16 17 17 17 17 17 15 16 17 17 15 14 15 15 14 14 14 13 12 12 12 13 14 14 14 14 14 15 15 14 14 14 13 12 12 11 12 14 13 13 14 13 13 13 14 16 16 16 16 16 16 16 15 14 14 13 13
14 12 9 4 5 7 2 3 2 4 3 5 4 4 4 2 4 6 7 6 5 5 3 3 4 4 3 2 2 1 5 8 6 6 5 6 9 11 12 14 16 16 16 16 17 17 15 15 17 16 14 14 14 14 14 14 14 13 11 12 12 13 13 13 13 13 14 14 14 13 13 13 12 12 11 10 12 14 13 13 14 13 13 14 14 15 16 16 16 16 16 15 14 13 13 12 11
13 10 7 3 5 5 1 3 2 2 4 5 5 4 1 3 7 7 8 8 7 4 2 3 3 3 1 3 1 1 4 6 6 7 6 7 9 11 14 15 16 16 15 16 17 17 15 15 16 16 14 14 13 13 14 15 15 12 11 12 12 12 12 13 13 13 13 13 13 12 12 12 12 12 11 10 11 14 14 13 13 13 13 13 14 14 15 15 15 15 15 14 13 12 11 10 10
11 8 4 5 4 2 1 2 2 2 3 4 5 5 2 5 8 7 7 7 5 2 1 1 2 2 5 3 1 1 4 6 6 6 6 6 8 14 17 16 16 15 14 15 15 15 15 15 17 16 14 13 12 14 15 15 14 12 12 12 12 12 12 13 12 13 13 13 12 12 11 11 12 11 10 9 11 12 11 11 12 13 13 13 13 14 14 14 14 14 14 13 12 11 10 10 10
10 7 5 7 5 0 1 1 1 3 0 1 3 6 3 6 7 6 6 5 3 2 3 4 1 2 2 4 3 2 4 5 6 6 7 8 11 17 17 16 16 14 14 14 14 14 14 15 17 15 14 13 13 16 16 14 13 13 13 12 13 12 12 12 12 12 12 12 11 11 11 11 11 10 10 9 11 10 10 10 11 12 13 13 13 14 14 14 13 13 12 12 11 10 10 11 10
9 7 5 3 1 0 2 2 3 2 3 2 2 6 3 5 6 5 4 2 1 2 2 4 3 1 2 4 4 4 5 2 5 5 7 11 14 17 17 16 15 14 14 14 13 14 14 15 17 16 14 13 15 16 15 13 13 13 13 12 12 11 11 11 12 11 11 11 11 10 10 10 10 10 10 9 9 8 9 9 11 12 13 12 12 13 13 13 13 12 11 11 10 11 11 11 10
8 6 3 1 2 2 4 4 5 3 3 1 2 4 3 4 4 3 3 1 1 1 3 3 4 5 1 4 3 6 5 2 4 5 9 14 16 17 16 15 14 14 15 14 13 14 14 15 17 16 15 16 17 16 14 14 13 13 13 12 11 11 11 11 11 11 11 10 10 10 9 9 9 9 9 8 8 7 7 7 10 13 12 11 11 11 11 11 11 11 10 10 10 10 10 10 10
6 5 2 3 2 2 3 5 6 3 3 2 2 2 3 4 3 2 3 2 1 1 3 3 5 6 2 3 1 6 5 4 4 7 13 16 17 16 15 14 15 15 14 14 14 14 14 15 17 16 17 18 17 15 15 14 13 12 12 11 11 11 11 11 11 10 10 9 9 9 8 8 8 8 8 8 8 8 7 7 10 12 12 11 11 10 11 10 10 10 10 10 10 9 9 9 9
5 3 1 4 5 3 4 6 6 4 5 4 1 0 2 3 2 2 2 2 2 4 4 3 5 4 2 4 3 7 5 5 5 10 14 17 17 16 14 13 14 15 15 14 14 14 14 16 17 18 19 19 17 15 15 14 13 12 11 12 12 11 11 10 10 9 9 8 8 8 8 8 7 8 8 8 8 9 9 9 10 11 11 11 10 10 9 9 9 9 10 9 9 8 8 8 8
3 2 2 3 5 7 7 6 5 4 7 6 3 1 3 3 1 1 3 3 4 5 4 3 5 3 0 3 5 5 5 6 8 12 14 16 17 15 13 13 14 15 15 14 14 14 13 16 18 19 20 18 17 15 15 14 13 13 13 13 12 11 11 9 9 8 8 7 7 7 7 7 7 8 8 9 8 9 11 11 10 10 11 11 11 10 9 9 8 8 8 8 7 7 7 7 7
3 2 1 4 7 9 9 8 7 4 8 7 4 3 3 3 2 2 2 3 3 4 3 1 4 1 1 3 4 5 6 7 11 13 15 16 15 14 13 13 13 14 15 15 15 14 14 16 18 20 20 18 17 16 15 14 14 13 13 12 11 11 9 8 8 7 7 6 5 5 5 5 6 6 8 9 9 10 11 12 10 10 10 11 11 11 10 9 8 8 7 7 6 6 6 5 5
5 3 3 7 8 9 10 10 10 7 6 6 5 5 3 4 3 2 1 3 2 3 2 1 2 1 2 3 4 8 9 9 11 13 15 15 14 14 13 12 12 13 14 14 14 14 15 16 17 18 19 18 17 16 15 15 14 13 12 11 11 10 8 7 7 6 6 5 5 4 4 4 5 5 7 9 9 10 11 12 11 9 10 10 11 11 11 10 9 8 7 6 5 5 5 4 4
6 5 5 8 9 10 10 10 10 8 6 5 5 7 4 5 3 1 1 2 3 4 3 3 3 3 2 3 5 8 10 10 12 14 15 15 14 14 13 12 12 13 13 14 13 14 15 16 16 16 17 18 17 16 15 15 14 13 12 11 10 10 8 7 7 6 6 6 7 7 8 7 7 7 8 8 9 9 11 12 12 11 11 11 11 11 11 10 9 8 7 6 5 5 4 3 3
5 5 6 8 10 11 10 10 10 8 7 5 5 7 6 4 3 2 2 5 4 6 4 2 3 4 2 2 5 6 10 14 14 15 15 14 14 14 13 13 13 13 13 13 13 14 15 15 16 16 16 17 16 15 15 14 13 12 12 12 11 9 8 7 6 6 7 9 11 11 10 10 10 9 9 8 8 8 9 12 14 13 12 11 11 11 10 10 9 8 7 6 6 5 4 3 3
5 5 6 8 10 11 10 11 10 9 6 6 5 6 7 4 3 2 1 6 5 4 1 2 2 3 1 2 0 7 14 17 16 16 15 14 15 14 13 13 14 13 12 12 13 14 15 15 15 15 16 17 16 14 14 14 13 13 12 12 10 9 8 7 7 7 9 11 12 12 11 10 11 11 11 10 9 9 9 12 13 13 12 11 11 10 10 9 9 8 7 7 6 5 5 4 4
4 5 6 9 11 12 11 11 11 9 5 6 4 3 6 5 3 1 2 4 2 3 2 2 1 3 2 4 6 13 20 20 18 17 16 15 15 14 13 13 13 12 12 12 12 14 14 15 15 14 15 17 16 14 14 15 14 14 13 11 10 8 7 7 8 9 9 10 11 12 11 10 9 11 12 11 10 10 10 10 11 12 11 10 10 10 9 9 8 7 6 6 6 5 5 5 4
4 6 8 10 12 12 11 12 11 7 5 5 3 4 7 4 4 0 2 3 4 3 3 1 2 0 2 4 8 18 22 20 19 18 17 16 15 15 13 12 13 12 12 12 12 13 14 15 15 14 15 16 15 14 15 15 15 14 13 11 9 8 8 9 9 9 8 9 11 12 11 8 7 8 9 10 10 10 10 10 10 11 10 10 9 9 8 7 6 5 5 5 5 5 6 5 3
6 6 10 11 12 13 12 12 8 3 6 5 5 5 7 7 4 3 3 5 4 4 5 3 2 2 1 4 10 18 21 20 20 19 18 17 15 15 13 13 13 12 13 13 12 13 15 15 14 14 15 15 14 14 15 15 15 14 12 11 9 8 9 10 9 8 7 8 9 9 8 7 6 7 8 8 8 8 9 10 10 10 9 8 7 7 6 5 5 4 3 4 4 4 5 4 3
9 8 11 13 13 13 13 12 8 5 6 6 7 5 5 12 7 3 6 7 6 8 7 7 6 5 4 7 12 17 20 19 20 19 18 17 15 14 14 14 13 13 14 13 13 15 15 15 14 14 15 14 13 13 14 14 14 13 12 11 10 10 10 9 8 8 7 7 6 6 6 6 5 6 7 8 9 8 9 10 10 9 8 7 6 5 4 3 3 3 3 3 2 2 3 4 4
11 10 12 13 15 16 14 12 11 8 7 8 8 6 8 14 10 4 9 11 9 11 8 6 7 6 8 10 13 17 18 19 19 19 18 17 15 14 13 13 14 14 14 13 14 15 15 14 14 14 15 14 13 12 12 13 14 13 12 11 10 11 10 8 8 7 7 7 7 6 6 5 5 5 7 7 8 8 8 8 8 7 6 5 5 4 3 2 3 3 3 2 1 1 2 3 3
10 13 13 13 16 17 14 12 12 10 9 10 10 8 11 14 11 8 11 12 10 12 9 7 7 4 11 11 13 16 17 18 19 18 18 17 14 13 13 13 14 14 13 13 14 16 15 15 15 14 15 14 13 12 12 12 13 12 11 10 9 10 9 8 8 7 7 7 7 6 5 4 4 5 5 5 5 5 5 5 5 5 4 4 4 3 2 2 2 2 2 2 1 1 0 1 2
11 14 16 16 16 15 13 13 13 11 8 10 11 10 11 11 11 12 14 14 11 7 5 5 7 2 10 13 14 15 15 16 18 18 18 16 14 14 14 14 14 13 13 13 14 16 16 15 15 14 15 14 13 12 12 11 12 11 11 10 9 9 9 9 8 8 7 7 6 6 5 5 4 4 4 4 4 4 4 4 4 4 4 4 3 2 2 1 1 2 1 1 1 0 0 1 2
12 13 16 19 17 14 13 13 13 12 10 12 13 11 11 11 12 13 16 17 12 2 2 2 4 3 8 13 14 14 14 15 17 18 18 16 16 16 15 15 15 14 12 12 14 15 16 16 15 14 14 14 13 12 12 11 11 11 10 10 9 9 10 9 8 8 7 7 6 5 5 5 4 4 3 3 3 3 3 4 4 4 4 3 2 1 1 1 0 1 1 1 0 0 0 1 1
14 14 16 18 17 15 13 12 13 15 15 15 13 11 12 14 13 13 15 17 12 1 2 3 3 3 8 12 13 14 14 15 16 17 17 16 17 17 15 15 14 13 12 12 14 15 16 16 16 14 14 14 13 13 12 12 12 11 10 9 9 10 10 9 8 8 7 6 5 5 4 4 4 3 3 3 2 2 3 3 3 3 3 3 2 2 1 1 1 1 1 0 1 1 1 1 1
16 17 14 14 15 15 14 13 13 15 14 12 12 13 15 15 13 13 15 16 12 5 3 4 5 6 9 11 13 13 13 14 16 17 16 16 16 17 15 13 13 12 13 14 14 15 16 16 16 15 14 14 14 13 13 12 12 11 10 9 10 11 10 9 8 8 7 6 5 4 4 3 3 3 3 2 2 2 2 2 3 3 3 3 3 2 2 2 1 1 1 1 1 1 1 2 2
16 19 13 11 13 14 14 13 13 14 11 10 14 17 16 13 11 13 15 15 11 6 5 6 7 9 10 11 12 12 12 14 16 17 17 16 17 18 15 14 14 13 14 15 15 15 16 16 16 15 15 14 14 14 13 13 12 11 11 10 10 10 9 8 8 7 6 5 5 4 3 3 3 3 3 2 2 2 2 2 3 3 3 3 2 2 2 2 2 2 2 2 2 2 2 3 3
10 19 16 11 12 12 14 15 13 12 11 13 16 18 16 11 10 11 13 13 9 7 8 7 8 10 10 10 11 11 11 14 16 17 17 17 18 19 17 14 14 14 15 16 15 15 16 16 16 16 15 15 14 14 12 12 12 12 11 10 10 9 9 8 7 6 5 5 4 4 3 3 3 3 3 3 2 2 2 2 3 3 3 3 3 3 3 3 3 3 3 3 3 3 4 4 3
6 15 15 12 11 11 15 17 15 12 11 14 16 17 16 13 13 13 12 12 11 10 10 10 9 9 10 11 11 10 11 14 17 17 18 18 19 20 18 16 16 16 16 17 16 16 17 17 16 16 16 14 14 14 12 12 12 12 11 10 10 9 8 8 7 6 5 5 4 3 3 2 2 2 2 2 2 3 3 3 3 3 3 3 3 4 3 3 3 3 3 3 4 4 4 4 3
6 12 13 13 12 12 16 17 16 14 11 13 13 13 16 17 17 16 13 13 13 13 11 10 10 8 10 11 10 9 11 15 17 18 19 19 19 19 18 17 17 17 17 18 17 16 17 17 17 17 16 15 14 13 12 12 13 13 11 10 9 8 8 7 6 6 5 5 4 3 3 2 2 2 2 2 2 3 3 3 3 3 3 3 3 3 3 4 3 3 3 3 4 4 3 4 3
8 11 11 12 12 13 18 17 17 17 12 13 12 12 15 19 20 18 15 14 14 13 13 12 10 9 9 10 9 10 12 14 16 17 19 20 18 18 18 18 19 17 17 18 17 18 18 18 18 17 16 16 15 14 13 14 14 13 12 10 9 8 7 6 5 6 5 5 4 3 3 2 1 1 2 3 3 3 4 4 3 3 4 3 3 3 4 4 4 4 3 3 4 4 3 4 4
10 11 9 10 10 12 18 19 18 18 13 15 15 13 15 18 20 20 17 16 16 15 15 13 10 9 9 10 10 10 11 13 16 17 18 19 18 18 18 19 19 17 17 18 18 19 19 18 19 17 16 16 16 15 14 14 14 14 12 11 9 8 6 5 5 5 5 5 4 3 2 2 2 2 2 3 3 3 4 4 4 4 4 4 4 4 4 4 4 4 4 4 4 4 4 3 3
11 11 10 12 11 12 18 21 22 20 14 17 17 13 14 18 16 17 16 16 17 16 15 13 11 11 10 10 10 10 11 13 15 16 17 18 17 18 18 19 20 18 16 18 19 19 19 19 18 17 17 16 15 15 13 13 13 13 12 11 9 7 6 5 5 5 5 4 3 2 1 1 2 3 3 3 4 4 4 5 5 4 5 4 4 4 4 4 4 4 4 4 4 4 4 3 3
11 12 12 14 16 13 14 20 24 23 15 17 21 15 12 15 11 15 14 15 17 15 15 14 12 11 10 9 10 10 10 12 14 15 17 17 17 18 18 19 20 19 17 18 20 20 20 20 19 18 18 17 15 14 13 13 13 12 11 10 8 7 7 6 5 5 5 4 2 2 2 2 3 3 3 4 5 5 5 6 5 4 5 5 5 5 4 4 3 3 3 4 3 4 4 3 2
11 13 13 16 20 16 13 16 22 25 19 18 23 19 15 12 9 14 14 15 16 15 15 15 12 11 10 9 10 11 11 11 11 14 18 17 18 19 19 19 20 19 18 19 21 21 21 20 19 19 18 17 15 14 13 13 13 11 10 9 8 7 6 6 5 4 4 3 2 3 3 3 4 4 4 5 6 5 5 5 5 4 4 5 5 4 4 3 3 2 2 3 3 3 3 2 1
16 16 14 15 19 19 18 14 17 25 23 19 20 20 21 14 9 14 15 15 16 16 15 15 14 12 11 10 10 11 12 11 12 15 19 19 19 20 19 19 20 19 18 19 21 21 21 21 20 19 18 16 14 14 13 13 13 11 10 9 7 7 6 5 4 3 3 2 2 3 4 4 5 5 6 6 6 5 5 5 4 3 4 5 4 4 4 3 3 3 3 3 3 2 2 0 2
21 19 16 15 15 16 18 14 15 24 22 20 21 20 21 19 13 13 14 15 15 16 15 13 12 11 10 11 10 11 12 12 12 15 18 20 20 21 20 20 19 19 19 20 21 21 20 21 20 19 17 15 14 14 13 13 13 11 10 10 8 8 6 5 4 4 4 3 4 4 5 6 6 6 6 5 6 5 4 3 2 3 4 4 3 3 3 3 3 3 2 2 2 1 2 2 5
17 19 16 17 15 12 17 14 15 22 18 18 24 22 21 22 18 15 13 14 14 15 16 13 12 12 11 11 11 12 12 10 12 15 19 20 21 22 21 20 19 19 19 21 23 23 22 22 21 20 17 14 14 16 15 15 15 13 11 12 11 9 8 7 6 5 5 5 5 6 6 6 7 7 6 6 6 5 3 3 3 4 4 3 3 3 3 3 2 2 1 1 1 0 2 3 6
13 16 14 15 14 11 14 14 14 20 16 15 22 22 21 21 19 17 15 15 16 16 16 15 15 14 10 11 12 11 11 9 11 15 18 19 21 23 22 20 20 19 19 22 23 22 21 21 21 20 17 15 15 16 16 16 16 14 13 12 12 10 10 9 7 7 8 8 9 9 8 8 9 9 8 6 4 4 4 4 4 4 3 3 3 3 3 3 2 1 0 1 2 3 4 4 5
12 12 10 11 11 9 11 13 15 17 12 12 19 19 19 21 19 18 18 17 16 15 16 15 15 14 11 11 12 11 12 11 12 14 16 19 21 22 22 21 20 19 20 21 20 18 18 19 19 18 18 17 16 16 16 16 15 14 12 12 11 10 11 11 9 10 11 12 14 13 11 10 9 8 6 4 4 5 5 4 3 3 3 3 3 3 3 3 2 1 1 2 3 4 5 4 3
10 10 9 10 12 12 10 12 15 15 11 11 15 15 13 16 17 18 19 18 16 15 16 15 13 13 12 12 11 12 14 13 13 14 14 17 19 20 22 21 21 20 19 20 20 20 18 19 19 19 19 18 16 15 15 14 13 12 10 10 11 10 10 12 11 13 14 15 15 14 12 9 7 6 4 4 4 4 4 3 3 3 3 3 2 2 2 3 3 3 3 2 2 3 5 5 3
11 11 11 10 14 15 10 12 15 13 12 10 10 10 9 13 17 17 16 16 17 16 16 16 13 12 11 11 11 12 14 14 14 15 13 15 18 19 19 20 20 19 20 21 24 25 20 18 21 20 17 17 16 16 15 14 13 12 11 10 11 11 11 13 13 15 17 16 15 14 11 9 7 5 4 4 4 4 3 3 3 3 3 3 3 3 4 4 4 4 4 3 3 3 5 6 6
11 12 11 10 12 17 13 14 15 9 10 12 11 9 8 14 18 17 15 15 17 16 17 17 15 13 12 11 12 13 14 14 14 14 14 14 16 18 19 20 19 20 23 22 23 28 25 19 20 17 14 15 16 17 16 15 14 14 14 13 13 13 13 13 14 17 17 15 14 13 11 9 6 5 5 5 5 4 4 4 4 4 4 5 5 5 6 6 6 6 5 4 4 4 5 6 8
10 11 12 10 8 14 15 15 14 8 9 13 15 12 8 11 17 19 17 17 18 17 17 18 15 14 13 11 12 14 15 15 13 14 14 14 16 18 18 20 22 24 26 21 19 25 25 18 17 17 15 15 16 18 17 16 16 16 16 15 16 16 15 15 15 18 18 16 14 13 11 9 7 5 6 5 4 4 5 5 5 5 6 6 6 7 7 6 6 6 5 5 5 4 3 5 6
9 10 13 13 11 13 15 15 12 9 8 10 16 15 10 9 13 17 20 19 19 20 19 18 16 15 14 14 14 15 17 16 14 14 14 15 17 19 19 21 24 25 24 21 22 26 25 19 19 19 17 16 18 19 18 17 18 18 17 16 16 16 16 17 19 19 18 17 15 13 11 9 6 5 5 4 4 5 5 6 6 6 7 7 7 7 8 8 7 7 7 6 6 5 4 5 6
10 9 12 14 14 14 14 13 10 10 9 9 14 15 11 10 9 13 19 20 19 22 22 19 17 16 16 16 16 17 18 17 16 15 14 15 17 20 22 23 24 24 22 21 24 27 27 23 20 20 20 20 20 19 19 20 19 18 18 17 16 14 15 20 22 21 19 17 15 13 11 7 5 4 4 4 5 6 6 6 7 7 8 7 8 9 9 9 9 9 9 8 8 9 8 7 7
10 10 11 10 10 12 13 11 10 10 10 10 14 16 11 10 9 10 14 19 20 20 19 18 18 17 17 17 16 16 17 15 16 15 14 17 18 21 24 25 25 26 22 20 22 25 26 26 24 24 23 22 20 20 20 21 20 19 19 19 18 16 18 22 22 20 18 17 15 13 10 7 4 3 4 5 6 6 7 7 8 8 9 9 9 10 10 10 10 11 11 12 12 11 11 10 9
12 10 11 9 8 9 9 9 9 9 9 13 18 19 14 10 9 11 13 16 17 15 15 17 18 19 18 16 16 17 17 15 16 15 14 17 20 23 25 25 26 26 22 21 23 23 24 26 27 25 23 21 21 21 21 21 21 20 19 20 19 20 22 24 22 19 18 16 16 13 10 7 5 4 5 6 6 7 7 8 8 9 9 10 10 10 10 10 10 12 13 14 14 12 12 12 12
13 10 10 9 8 7 7 8 9 9 10 15 19 19 17 13 10 12 15 16 16 15 17 19 20 19 18 16 16 16 16 16 16 15 13 15 18 22 25 25 25 24 22 23 25 23 24 25 26 24 23 23 22 22 22 22 21 20 19 19 20 23 25 23 21 20 19 17 15 14 11 8 6 6 6 6 6 7 8 8 9 9 9 9 9 9 9 10 10 11 12 12 12 11 11 11 11
13 11 12 10 9 8 8 9 9 10 9 10 17 19 15 13 12 12 13 14 16 17 16 17 19 19 18 16 16 15 15 16 16 14 13 14 15 19 24 26 26 24 23 24 24 24 25 25 24 24 24 24 23 23 24 23 21 20 19 19 21 24 25 23 21 22 20 17 16 15 11 9 7 6 6 6 7 8 8 9 9 9 9 10 10 10 10 10 11 12 12 12 12 12 11 10 10
15 14 13 12 11 9 10 10 9 11 7 5 13 16 12 12 12 15 15 11 14 17 16 16 18 19 18 17 16 15 16 16 15 14 13 13 14 19 24 25 26 26 26 26 25 25 26 26 26 25 25 26 24 23 24 22 20 20 19 19 21 22 23 22 22 23 19 16 17 15 10 8 7 6 6 7 8 9 9 9 10 10 10 10 10 10 11 11 11 12 12 12 12 11 11 11 11
15 15 14 13 10 9 10 10 10 12 9 8 12 11 10 9 3 7 14 12 11 14 15 15 16 17 16 15 15 16 16 16 15 15 15 14 16 21 25 25 26 26 27 28 27 27 27 27 29 28 27 27 25 23 24 22 20 19 18 19 20 22 24 24 24 23 18 17 18 15 10 8 7 7 8 10 10 11 10 11 11 11 11 11 11 11 11 11 12 11 11 11 11 11 11 12 12
13 14 14 13 11 9 6 3 3 8 8 8 10 8 6 4 3 1 8 12 13 13 13 14 13 14 14 14 15 16 15 16 16 15 16 17 18 22 25 27 27 26 27 29 29 29 28 28 30 30 27 27 26 24 22 20 19 18 18 19 20 24 27 26 24 23 20 19 18 14 11 9 8 8 10 12 12 12 12 12 12 12 12 11 11 11 11 11 11 11 11 10 10 11 12 12 12
10 12 14 13 13 11 5 1 2 3 8 7 8 9 6 3 2 5 9 11 15 15 14 14 12 13 14 13 14 15 15 16 16 16 17 17 19 21 25 27 28 27 28 29 29 30 30 29 30 29 27 27 26 22 20 18 18 18 18 20 23 26 27 26 24 23 22 21 18 15 13 10 9 10 12 12 13 12 12 13 12 12 12 11 11 11 11 11 11 10 10 10 10 11 11 11 10
10 11 13 14 14 12 7 5 4 6 8 6 9 14 11 7 5 8 11 13 15 16 15 15 14 14 14 13 14 15 16 16 17 18 17 17 19 21 24 27 28 29 28 29 29 30 30 29 29 29 28 28 25 21 19 19 17 18 19 22 25 27 27 25 24 24 23 21 19 17 14 11 11 12 13 13 13 13 13 13 13 13 12 11 11 11 11 11 10 10 10 10 10 10 11 11 10
12 11 12 12 12 12 10 8 7 9 9 7 11 14 11 10 7 8 12 14 15 16 16 16 16 15 13 13 14 15 15 15 15 17 16 15 18 22 25 27 28 29 28 28 29 29 29 28 28 29 27 25 23 20 19 19 17 19 22 24 25 26 26 25 24 24 22 20 19 17 14 12 12 13 13 14 14 14 14 13 13 13 12 12 11 11 11 10 10 10 10 10 10 10 10 10 9
12 10 13 11 8 10 11 8 7 9 9 7 10 11 9 10 9 8 11 13 14 16 15 16 16 15 14 13 13 14 15 14 15 16 16 16 18 23 26 27 28 28 27 28 29 27 28 28 28 28 25 23 21 20 20 19 20 24 26 25 24 25 25 25 25 24 22 21 19 16 14 13 14 14 14 14 14 14 14 14 13 13 13 12 11 11 10 10 10 10 9 10 10 10 10 10 9
9 9 13 13 9 8 10 9 7 7 8 8 8 8 7 7 8 8 10 11 13 14 14 14 15 16 16 15 13 14 14 15 16 15 16 16 18 24 27 27 27 27 26 28 29 27 27 27 27 27 25 23 21 21 20 19 21 26 26 24 25 25 25 26 26 24 23 21 18 15 14 14 14 15 15 15 14 14 14 14 14 13 13 12 12 11 10 10 10 10 10 10 10 10 10 10 9
12 10 11 12 11 10 11 11 10 8 7 7 7 8 6 5 6 9 10 10 11 13 14 13 15 18 17 14 14 14 14 15 15 15 15 15 17 23 26 26 27 27 26 28 28 27 27 26 26 26 25 22 21 21 20 18 21 25 23 22 26 27 26 27 26 25 23 20 17 16 14 14 15 15 15 15 15 14 14 14 14 13 13 13 12 11 10 10 11 11 11 10 10 10 9 9 9
Wind_Direction
346 353 349 341 233 245 236 260 215 121 154 106 96 107 75 38 22 62 98 98 132 60 22 46 83 101 56 18 30 37 28 7 359 2 36 71 119 149 152 145 141 140 139 139 145 155 161 168 177 173 160 154 151 152 153 151 148 146 147 147 147 144 141 140 139 138 136 133 131 131 128 124 118 110 105 105 105 99 92 90 93 96 102 106 108 110 111 110 111 112 111 110 108 106 104 101 97
342 346 348 336 246 260 287 292 223 141 163 112 77 71 77 74 52 43 48 33 41 45 38 75 99 96 51 49 47 84 62 36 33 48 68 112 132 146 151 146 143 140 137 139 144 151 156 167 177 173 162 153 151 154 154 152 148 146 147 148 147 143 141 140 140 139 135 133 132 131 129 125 117 109 105 104 102 102 98 92 92 94 101 107 110 116 117 114 113 113 113 112 109 107 104 101 97
334 339 339 308 249 261 321 290 242 174 185 129 93 75 55 72 58 38 31 25 44 49 73 93 125 102 336 226 238 332 72 64 68 78 98 138 145 150 152 146 143 139 135 138 144 151 156 166 177 173 161 153 154 156 152 150 148 146 149 150 146 143 142 140 139 137 135 133 133 132 129 124 117 113 108 104 101 103 101 94 92 93 100 107 110 117 120 117 115 114 114 113 110 106 103 101 99
329 330 303 251 238 252 309 353 19 272 209 144 122 103 51 62 56 36 35 21 40 44 19 236 172 74 301 291 360 345 90 92 76 79 121 148 145 146 149 145 141 137 134 138 144 151 155 165 174 170 158 154 154 150 147 146 146 149 151 149 146 143 141 139 139 137 136 135 134 131 128 123 119 115 109 103 102 103 101 95 94 97 104 110 113 116 119 120 118 117 115 113 110 106 104 101 97
316 298 284 263 253 296 350 29 15 279 251 149 133 110 63 57 50 36 42 23 24 334 336 291 279 87 293 6 1 318 81 103 95 91 125 126 128 141 146 143 140 136 135 138 143 148 155 166 170 166 156 153 149 143 143 144 147 151 150 148 146 144 142 140 139 139 137 134 132 130 127 124 120 114 109 104 103 101 94 89 89 101 114 114 118 120 121 122 120 119 116 115 113 108 103 97 87
308 269 267 274 257 293 241 204 216 196 83 333 82 95 52 42 39 25 32 59 65 305 316 292 299 261 205 69 33 23 38 100 118 115 129 127 134 142 142 142 140 135 134 136 142 146 153 164 167 164 153 146 143 141 144 146 150 151 150 150 148 146 144 140 138 136 134 132 131 130 129 126 123 120 118 114 107 99 94 90 89 103 116 113 117 123 124 124 122 121 119 120 116 107 98 87 79
317 283 257 214 134 228 240 217 229 202 112 4 28 70 30 23 24 2 4 60 148 238 239 275 292 273 200 123 98 64 47 60 98 120 130 133 140 141 141 142 138 134 134 136 141 145 152 162 166 161 149 141 141 143 147 149 152 153 152 149 147 146 142 138 135 134 132 132 131 131 130 128 127 126 125 121 114 108 102 100 103 110 116 113 112 118 122 123 123 122 124 126 116 103 91 81 78
305 300 302 281 253 231 246 227 229 227 120 105 360 20 2 359 356 335 2 14 7 338 256 271 272 272 134 165 171 89 85 61 69 109 126 136 141 141 142 141 137 135 135 137 141 144 151 162 164 155 143 140 142 146 150 152 154 153 149 143 145 144 139 136 133 133 133 134 133 131 131 131 131 132 131 127 122 120 109 108 119 117 117 118 116 117 121 125 125 126 132 129 113 99 88 83 81
272 277 242 262 262 247 248 239 225 195 149 164 189 7 320 311 322 321 343 20 360 328 317 320 275 286 122 160 118 109 101 75 99 119 131 139 141 142 141 141 140 137 136 139 143 143 150 162 162 148 141 143 147 151 152 154 154 149 146 145 146 141 136 136 136 138 140 141 139 137 138 136 139 140 137 134 131 130 121 116 120 115 116 120 122 123 127 133 132 133 135 125 112 101 91 89 88
240 261 249 244 253 249 243 239 228 168 147 175 179 159 270 270 271 349 339 12 14 329 350 340 264 278 212 135 109 115 95 104 130 131 138 141 142 141 139 141 141 138 138 141 146 145 151 162 157 145 144 148 150 154 155 156 152 149 150 148 144 139 140 143 145 144 140 137 136 142 145 143 151 150 143 137 133 133 127 122 119 116 118 120 125 131 137 143 139 135 131 123 117 109 100 98 95
222 201 239 239 239 243 241 232 229 189 148 171 174 165 237 253 229 154 338 355 13 332 2 271 248 233 201 131 99 104 104 128 140 140 143 143 142 140 137 138 139 140 140 142 146 146 150 158 155 148 149 151 154 156 156 155 152 153 152 146 143 141 144 145 142 132 123 121 124 142 146 146 153 149 144 137 133 131 126 126 124 120 119 121 127 130 134 139 138 135 132 129 125 118 110 103 100
225 190 205 235 236 238 242 235 229 219 180 187 169 150 203 231 217 166 304 341 353 330 12 316 322 327 200 135 106 117 125 139 142 147 146 144 143 139 139 136 138 141 141 144 146 147 149 155 155 153 153 154 156 157 157 157 154 153 149 145 145 145 145 140 130 120 117 115 113 117 119 127 135 138 143 138 136 133 128 130 128 124 121 120 124 126 129 133 137 139 138 138 130 125 116 105 104
229 206 211 233 237 238 238 236 226 218 211 206 158 141 191 223 197 138 266 282 330 338 29 14 324 263 257 100 122 133 139 145 146 152 149 147 146 144 144 140 143 145 145 147 147 150 150 154 157 157 157 155 157 157 158 159 155 151 149 148 146 146 145 133 124 122 121 117 110 102 96 97 104 117 128 129 132 134 132 133 132 129 124 122 124 126 130 134 139 142 142 143 139 135 127 117 113
232 213 222 233 233 237 235 234 219 215 221 193 147 147 185 219 173 130 277 275 344 6 28 41 286 255 256 142 153 153 149 150 151 152 151 150 147 148 148 145 149 149 150 152 151 152 152 156 158 159 160 157 157 156 159 161 155 152 154 150 146 147 144 133 126 123 124 120 110 99 91 86 88 97 107 116 123 130 134 135 134 130 128 127 126 126 129 133 136 141 144 148 150 150 148 144 141
231 216 225 237 232 231 230 233 220 218 214 168 148 155 181 185 175 174 324 314 8 44 50 122 265 284 262 272 109 138 145 149 153 152 152 150 149 150 146 146 151 152 155 154 154 154 154 157 158 162 164 161 158 157 162 161 156 155 153 148 146 147 141 136 131 129 127 116 106 100 93 85 84 86 93 105 113 119 124 132 135 132 132 131 129 128 126 129 133 139 145 151 160 164 165 163 160
223 226 224 236 234 228 224 226 222 219 186 137 146 178 204 168 155 257 52 318 340 138 221 134 177 313 356 351 45 116 137 147 152 151 151 150 151 149 144 148 152 153 156 157 158 158 159 159 159 164 166 164 161 159 161 159 156 155 150 147 146 145 144 140 135 135 127 115 113 106 95 91 88 81 83 95 106 117 125 134 140 138 138 137 134 132 129 132 134 138 146 155 163 169 171 163 155
199 225 226 231 232 230 224 220 224 218 156 125 168 208 247 196 140 119 124 249 270 173 200 123 129 304 1 31 88 122 135 146 150 151 153 152 153 152 150 153 156 157 159 162 162 162 163 163 163 164 165 166 161 156 156 155 156 153 149 149 147 144 142 133 129 129 122 118 115 102 94 99 98 86 88 96 99 111 127 137 143 144 144 143 140 138 136 137 139 145 149 156 165 171 167 157 149
191 212 224 229 231 230 229 221 210 177 146 155 212 216 262 257 186 153 189 223 241 220 192 167 156 161 90 86 120 132 137 148 153 157 159 159 161 158 159 162 166 166 164 165 165 166 165 165 166 164 164 166 160 155 154 156 155 152 151 147 139 137 131 125 127 131 131 127 111 97 104 114 110 105 104 106 105 112 126 134 141 147 148 146 144 143 142 143 146 152 156 160 164 168 168 173 186
204 213 223 229 231 231 232 219 180 153 159 171 216 221 247 262 256 175 238 245 222 240 219 190 194 168 146 133 139 141 144 153 160 165 166 168 169 165 169 170 172 172 169 168 166 168 166 166 169 165 165 165 160 156 155 156 155 153 151 142 135 135 134 133 139 143 144 139 123 119 129 129 125 121 116 119 121 121 123 129 137 143 145 146 145 139 138 144 144 151 163 157 135 155 189 215 221
213 219 228 227 228 234 229 207 177 173 177 188 219 216 224 252 263 216 254 264 240 253 251 218 227 189 162 151 152 151 152 159 166 172 173 175 174 171 178 174 173 174 172 170 165 168 168 167 169 166 166 165 162 159 155 155 156 154 149 143 141 140 140 144 147 148 147 144 141 141 138 132 128 126 127 125 121 121 120 121 124 127 133 140 135 130 134 124 109 124 146 138 106 206 225 246 261
212 220 232 226 226 233 218 199 186 177 183 213 223 205 222 241 245 232 252 262 244 251 251 247 274 207 164 160 162 160 159 165 171 176 179 183 178 173 179 175 173 171 167 164 163 168 168 166 168 166 166 166 164 162 159 157 155 153 150 144 143 143 144 151 154 152 153 153 150 145 140 134 130 132 137 135 131 137 136 129 125 125 133 138 130 134 159 138 117 138 140 136 169 219 251 301 309
219 222 232 232 232 229 211 207 194 170 180 217 217 210 226 228 223 227 238 249 252 259 242 239 291 256 168 166 165 164 168 173 175 180 183 182 175 174 177 173 171 165 162 162 162 168 168 166 168 168 167 167 167 166 163 160 158 155 152 146 144 150 154 158 159 159 160 158 155 151 149 145 142 142 139 138 143 146 146 144 141 141 145 146 142 144 151 143 134 143 136 136 162 165 71 345 325
224 222 226 232 234 225 213 212 189 173 186 204 213 218 218 212 216 224 229 241 255 307 62 235 291 265 175 165 165 167 174 181 182 184 186 178 174 180 177 172 167 160 161 163 163 167 169 168 169 168 168 168 167 168 168 166 164 159 153 149 151 160 163 163 163 164 163 158 162 165 161 154 149 147 140 142 149 151 150 146 141 139 141 140 143 133 116 110 63 84 92 106 118 80 39 343 329
222 226 221 223 224 220 220 213 189 187 201 206 213 215 205 210 219 222 225 236 241 175 104 233 260 213 176 165 167 170 176 186 187 186 188 182 179 182 177 170 161 157 161 163 165 169 171 170 169 170 169 170 169 170 172 169 166 159 153 154 161 167 166 168 169 166 164 165 172 171 161 155 150 141 138 146 150 159 154 142 133 129 129 127 122 113 98 74 39 31 40 33 334 331 348 344 337
219 229 224 217 215 218 222 217 200 197 206 211 211 216 215 218 225 224 223 231 229 199 189 222 217 194 179 172 168 169 176 185 187 186 188 184 179 182 178 166 157 160 164 165 168 170 173 173 170 171 171 173 172 172 173 169 165 160 157 162 169 171 169 169 169 169 169 171 172 162 154 148 138 126 130 144 145 155 153 132 118 111 110 107 99 94 83 69 54 27 12 3 347 344 354 4 356
213 220 220 212 210 211 215 214 206 200 202 206 210 223 226 216 220 227 224 229 222 201 221 215 200 197 186 177 169 170 178 184 187 185 186 184 179 183 179 165 164 170 171 170 172 171 173 175 174 173 173 177 175 172 173 167 164 161 161 167 170 170 170 169 169 173 174 168 163 153 149 142 127 121 127 135 134 139 140 120 103 98 94 86 86 84 72 67 59 35 18 3 358 355 360 5 356
209 213 215 212 210 205 210 213 207 203 204 206 214 225 223 202 206 224 217 216 207 196 219 209 201 204 187 175 169 172 179 186 188 183 185 185 180 185 181 168 171 176 174 174 175 172 173 175 176 173 173 178 175 172 172 167 163 161 164 168 169 169 167 168 172 174 168 161 161 152 151 144 126 124 130 128 131 130 120 108 98 95 83 70 65 60 57 55 51 40 25 9 2 359 360 360 353
200 204 206 207 209 201 209 217 211 208 207 205 217 228 223 210 214 226 208 194 196 203 215 205 204 203 183 176 172 172 181 187 188 185 189 187 183 187 183 173 175 176 175 178 176 172 172 174 175 174 175 177 174 172 171 169 165 163 169 171 167 168 166 168 172 170 167 165 160 157 158 140 125 135 138 128 126 128 121 112 101 91 80 67 56 51 46 42 44 39 24 12 6 2 359 356 355
189 190 201 203 206 211 210 215 211 209 209 196 208 230 227 219 217 222 210 191 194 204 209 201 199 195 180 178 176 175 182 187 189 191 192 191 189 188 183 177 176 176 175 177 174 169 171 172 172 172 176 177 175 173 173 172 170 167 172 174 169 169 169 170 171 171 174 171 163 169 164 134 135 162 158 141 131 132 125 117 109 98 87 74 57 48 39 36 41 34 20 11 4 359 358 360 3
195 189 209 205 205 219 209 209 212 210 211 188 192 230 230 222 215 211 204 185 183 197 204 199 190 187 183 178 180 181 181 187 191 193 192 192 191 187 183 178 175 175 173 174 172 169 170 170 171 171 174 178 177 177 176 172 170 170 172 175 174 173 176 176 173 174 177 177 176 174 160 138 160 183 170 153 140 136 125 117 111 95 82 70 53 41 37 35 32 23 13 4 359 358 2 7 12
197 190 211 212 212 219 202 202 206 206 207 186 196 236 238 233 218 196 187 178 182 200 204 199 186 182 186 180 182 184 184 191 192 190 191 190 189 186 183 175 174 176 172 171 172 170 170 172 172 171 173 178 179 179 177 173 170 170 171 174 175 176 183 186 178 178 183 182 176 167 162 162 176 179 171 159 142 133 122 112 102 85 72 60 46 39 35 29 21 13 4 359 355 351 359 6 10
195 195 206 211 219 221 201 197 200 202 195 184 203 235 239 247 227 176 172 178 184 202 205 198 189 184 185 182 184 184 184 189 189 188 190 188 185 185 181 172 174 177 170 168 169 170 172 173 172 171 173 176 179 180 176 174 172 168 169 173 175 177 184 187 179 178 182 178 168 165 173 162 161 162 158 153 140 130 121 106 94 83 75 61 43 31 19 14 6 356 358 4 356 339 339 346 357
198 206 209 208 213 222 206 195 198 200 191 187 210 230 237 245 214 157 167 180 182 201 207 200 195 189 186 184 184 184 184 187 187 186 187 187 181 179 177 172 175 176 167 166 170 172 174 174 171 170 172 173 175 178 175 177 177 169 168 170 173 181 187 181 174 175 176 172 164 157 153 132 136 145 142 142 135 125 115 102 93 84 70 45 23 12 4 8 358 344 354 9 6 331 318 322 349
195 207 214 213 211 216 208 193 195 198 197 199 211 227 240 237 187 166 178 180 186 203 207 206 203 194 189 186 183 184 186 186 186 182 180 181 176 175 175 172 175 174 169 170 173 176 175 173 171 169 170 171 172 176 176 177 178 173 170 169 171 178 180 170 166 170 170 166 155 146 140 133 130 133 131 127 121 112 105 99 93 78 51 20 8 5 6 16 14 8 1 353 354 328 313 306 260
196 199 209 215 211 214 210 197 191 193 198 207 211 223 232 225 188 182 185 181 194 205 209 213 210 202 192 187 186 185 186 190 191 180 175 178 177 175 175 172 172 171 170 171 175 179 176 170 169 167 167 169 170 176 177 173 176 177 170 165 164 166 166 162 167 169 161 153 150 145 136 132 128 123 120 114 109 106 100 93 80 50 24 6 6 8 360 1 8 13 8 348 344 331 344 296 168
206 204 207 214 212 214 213 203 188 188 195 207 214 222 225 220 206 192 184 184 199 207 210 215 212 208 196 190 189 185 191 195 186 175 174 177 178 176 175 173 171 171 172 172 175 181 175 168 168 165 165 168 169 172 171 166 171 177 172 166 166 167 166 161 167 162 150 150 151 146 136 132 129 119 112 108 109 108 101 84 41 13 11 7 7 4 349 346 356 358 351 348 333 327 52 114 147
225 215 212 216 215 213 208 198 182 187 195 207 215 223 224 221 217 204 184 183 200 209 209 209 208 208 199 196 193 185 193 189 167 171 178 176 174 174 171 170 170 172 173 172 177 181 174 168 168 165 164 168 168 169 169 166 169 175 178 178 172 168 165 161 162 157 148 147 141 133 130 128 125 122 120 119 109 98 79 42 17 13 16 13 360 351 344 342 354 4 18 29 359 117 86 116 147
242 222 212 212 214 208 196 187 175 185 198 210 215 224 227 222 220 212 196 190 199 205 207 208 208 208 201 199 194 184 187 174 161 173 179 175 173 172 168 168 172 172 172 176 180 179 173 168 168 165 165 168 168 170 173 172 173 178 182 179 170 164 165 163 156 155 160 160 149 137 136 138 135 131 127 118 86 50 33 24 22 21 18 6 352 351 355 355 360 23 133 93 84 95 95 118 156
230 213 206 203 198 189 182 180 177 184 201 214 212 221 228 224 221 215 206 203 204 203 208 212 210 207 201 198 193 184 183 175 174 180 178 176 174 171 171 171 173 171 173 178 175 170 172 172 169 166 168 170 171 174 176 175 176 180 179 171 166 162 166 169 160 160 171 169 157 147 144 147 141 131 115 86 46 26 20 22 25 19 12 2 355 359 10 22 39 84 137 116 101 98 92 102 165
220 207 204 204 195 191 187 186 185 188 204 223 220 222 226 221 218 218 213 211 211 205 208 214 213 209 203 197 191 185 187 184 185 188 181 178 173 172 173 169 171 172 169 173 173 174 178 175 174 175 173 171 172 179 180 178 177 173 164 160 164 161 162 170 166 162 166 161 152 144 143 147 138 122 95 64 46 19 7 22 30 18 11 7 15 26 37 54 71 96 110 100 102 106 92 82 102
218 219 219 216 201 200 199 183 181 189 203 219 225 223 225 216 213 216 214 213 214 209 207 210 209 210 205 195 191 190 193 193 194 192 185 180 176 172 169 165 168 164 159 168 175 181 183 179 185 184 175 173 175 182 181 173 168 157 146 145 154 153 151 158 158 156 156 151 146 141 141 145 134 115 89 62 44 16 10 30 41 37 34 40 57 65 68 74 79 90 98 90 81 89 99 87 71
216 218 229 238 207 198 199 175 170 185 204 204 207 221 227 212 211 214 207 206 212 209 208 209 205 204 204 197 193 194 197 198 199 197 189 184 177 169 164 161 157 153 160 169 172 181 185 182 189 189 177 177 179 182 180 170 167 163 157 155 156 154 151 157 159 155 152 148 148 147 142 137 124 102 67 44 33 33 43 54 64 69 65 67 73 75 77 79 80 83 83 86 86 81 99 101 77
220 202 210 237 208 193 194 178 175 198 211 197 199 222 237 211 211 213 207 205 206 206 209 210 206 201 199 199 197 196 199 198 198 199 192 185 177 169 163 156 152 156 167 169 163 179 189 184 184 187 183 182 180 182 182 177 178 178 175 171 167 164 160 163 162 157 156 154 153 152 143 130 111 72 42 29 34 58 75 79 83 82 80 79 77 77 78 77 79 82 82 84 89 87 98 108 95
220 192 191 209 208 202 194 184 191 209 213 194 193 213 240 229 212 204 203 206 204 205 209 207 204 200 194 197 199 195 198 198 197 198 193 187 177 169 163 154 156 163 167 167 162 173 190 192 183 182 183 183 182 184 185 186 186 184 182 178 176 174 165 162 163 164 164 160 153 146 137 120 91 56 41 44 72 87 92 90 89 87 86 83 79 80 79 81 83 83 85 84 82 83 85 98 102
213 185 183 197 205 210 200 193 206 210 209 205 195 204 229 239 218 194 196 203 206 207 205 201 199 196 194 197 199 196 197 197 197 199 194 188 176 166 161 154 161 169 167 169 169 171 184 190 183 182 186 186 184 183 186 189 188 185 186 181 173 167 159 160 164 165 165 163 155 145 138 119 85 61 64 87 98 98 98 96 95 93 90 87 86 88 86 88 90 87 87 88 88 88 82 87 97
201 178 176 181 189 203 204 202 208 205 211 217 202 199 215 235 218 193 194 203 209 208 201 198 195 194 197 197 196 196 196 194 197 200 195 189 176 164 159 154 166 178 172 169 171 170 177 183 182 184 186 186 185 184 187 191 188 185 184 177 166 157 156 159 160 158 160 163 158 149 141 125 101 90 97 105 106 104 103 101 100 98 95 95 94 94 94 92 93 94 96 95 93 91 85 85 89
195 181 176 168 172 191 199 207 209 203 213 223 211 201 208 232 219 199 204 210 210 203 196 196 193 196 200 197 193 193 193 192 196 199 190 183 174 165 161 157 169 181 173 170 174 170 173 181 184 183 181 184 186 186 191 192 188 183 178 174 168 163 161 159 157 159 163 163 161 156 147 131 118 119 117 112 109 108 109 106 104 104 101 101 100 98 98 96 94 96 98 97 93 89 88 86 83
194 190 183 169 168 179 185 199 208 210 218 221 215 204 207 228 226 206 211 214 207 200 199 195 191 196 199 195 193 190 190 190 193 195 184 178 173 167 165 161 168 177 173 174 178 175 176 182 184 182 181 184 185 187 192 191 187 183 178 175 174 173 170 164 163 168 170 168 168 164 152 138 129 127 121 116 120 121 117 112 109 108 104 103 104 103 101 101 99 97 96 95 92 88 87 87 84
191 194 193 184 177 176 186 191 196 212 220 216 210 204 209 229 232 222 216 206 198 198 200 194 190 195 197 194 191 187 187 186 189 192 181 178 178 169 168 166 166 173 175 178 179 177 180 184 183 183 184 186 185 187 190 188 186 184 179 176 175 175 173 169 170 174 175 177 176 167 153 143 137 132 128 128 134 132 124 120 116 112 110 108 108 106 105 104 101 100 99 96 93 90 87 88 89
188 193 193 192 186 177 187 189 193 208 207 193 201 201 217 235 230 228 222 199 193 197 197 196 195 197 195 192 189 184 183 184 186 189 180 180 182 173 171 170 168 172 175 177 178 178 182 185 183 181 185 187 184 183 187 186 183 181 177 177 175 172 169 169 175 178 176 178 176 165 150 144 140 136 139 140 143 139 130 125 121 117 117 115 113 111 108 106 105 103 103 99 95 93 92 91 89
189 196 197 201 196 182 189 191 194 201 185 170 188 194 220 229 222 230 218 195 190 195 193 197 200 199 195 189 186 183 183 184 184 186 186 187 184 176 173 173 173 173 173 175 178 180 183 184 183 182 184 185 182 182 184 182 178 176 175 178 176 173 173 174 178 180 176 173 170 159 145 141 136 134 141 143 145 142 133 129 126 123 123 120 118 115 111 109 109 107 106 103 101 99 97 93 90
190 197 203 207 204 192 189 200 206 201 187 174 185 202 222 211 60 90 202 192 191 190 190 195 195 193 191 186 185 183 184 188 184 184 189 190 184 178 176 177 176 173 172 175 180 182 183 183 183 184 183 182 182 181 180 177 174 174 175 177 176 178 180 179 181 184 180 173 168 158 146 138 132 136 141 142 144 142 136 134 131 128 127 126 122 119 116 116 114 111 111 109 107 104 99 96 93
183 197 205 204 209 207 189 128 62 178 201 186 189 213 219 205 184 164 175 192 193 186 184 186 183 182 183 182 185 184 186 189 184 182 188 190 187 184 182 180 178 176 175 177 180 182 184 182 182 184 182 180 180 177 174 174 172 172 174 176 180 184 184 184 185 185 178 171 167 159 149 138 136 141 142 144 145 142 140 138 135 133 132 130 126 122 122 123 121 118 119 116 112 108 102 98 96
186 194 199 198 211 219 206 188 152 176 209 198 194 214 218 218 206 164 172 189 188 186 187 184 183 181 181 184 186 187 189 188 183 182 186 188 187 189 188 183 181 179 177 177 179 180 182 183 182 182 180 179 178 174 172 173 171 172 175 178 184 186 185 187 187 181 174 171 167 159 149 140 140 144 146 147 146 144 144 142 139 138 136 132 130 129 129 130 127 125 124 119 115 111 106 101 97
213 198 194 196 204 206 203 202 190 191 210 209 204 215 223 222 205 162 179 190 184 186 190 189 188 184 185 190 189 190 190 186 184 184 185 187 188 190 189 185 183 180 176 176 177 177 180 183 183 182 179 177 175 172 172 173 174 179 181 183 187 186 186 188 186 179 173 170 166 157 148 143 144 148 151 150 149 149 149 146 144 142 139 138 136 135 136 136 134 132 129 123 119 114 109 104 100
226 212 197 197 203 202 201 206 202 196 204 214 211 213 223 225 212 183 184 188 184 186 191 195 194 188 190 195 190 189 185 181 184 185 184 186 189 190 189 187 184 179 174 175 175 176 180 181 182 182 178 175 174 172 173 174 179 183 184 186 187 186 188 188 183 178 173 167 163 155 147 145 146 151 155 154 154 154 152 150 148 145 144 144 142 142 142 142 142 139 135 128 123 116 111 107 104
206 211 197 193 198 203 205 211 218 210 206 210 211 218 224 213 207 201 187 178 180 187 192 198 199 196 198 200 193 184 179 180 184 183 182 183 186 189 189 188 184 178 173 175 177 179 180 179 181 180 176 174 173 174 175 173 178 183 183 183 186 187 189 186 181 177 172 165 160 153 147 147 150 155 158 156 156 156 155 153 151 150 150 149 148 148 148 149 148 143 136 131 127 121 114 111 111
194 206 197 195 198 197 200 206 211 216 220 215 212 229 230 168 175 197 193 189 192 193 196 201 205 205 202 199 191 181 179 182 182 179 178 180 185 187 186 184 181 175 172 175 178 179 179 180 181 178 176 175 172 173 173 170 175 180 177 178 186 189 187 182 179 175 170 164 158 153 148 149 154 158 159 158 157 157 157 156 155 155 154 153 154 153 153 153 150 144 139 135 132 128 121 117 117
Height
789 788 786 784 781 782 779 775 791 790 787 807 804 805 807 795 791 790 793 793 792 792 786 784 783 784 789 793 792 790 792 796 800 803 810 807 804 807 807 809 810 813 815 817 820 822 824 825 827 828 830 831 832 834 835 836 837 838 838 839 839 840 840 840 840 840 840 840 841 840 841 841 841 841 842 842 842 842 842 842 842 842 842 842 842 842 843 843 844 844 845 845 846 846 846 846 846
789 788 785 784 782 784 780 773 797 803 798 815 808 807 805 792 794 797 797 795 795 792 784 783 784 786 788 787 787 791 794 795 796 798 804 804 806 807 808 810 811 813 815 818 820 822 824 826 827 829 831 832 833 834 836 837 838 839 840 840 841 841 841 841 841 842 842 842 842 842 842 842 842 842 843 843 843 843 843 844 843 843 843 843 843 843 844 844 845 845 846 846 847 847 847 847 847
788 787 785 786 783 780 779 777 798 807 806 818 815 807 800 797 801 800 795 793 792 789 786 786 787 788 790 791 790 795 798 794 794 796 802 805 805 806 809 811 812 815 816 818 821 823 825 826 828 830 832 833 834 835 836 838 839 840 841 841 842 842 842 842 843 843 843 843 843 843 843 843 843 843 844 844 844 844 844 845 844 844 844 844 844 844 845 845 846 846 847 847 847 848 848 848 848
787 787 786 786 784 782 786 793 802 807 810 813 814 808 799 801 801 797 794 790 788 788 789 789 791 789 790 797 791 793 798 796 795 796 801 804 803 806 809 811 813 815 817 820 821 823 825 826 828 830 832 834 835 836 837 839 840 841 842 842 843 843 843 843 844 844 844 844 844 844 844 844 844 844 844 844 845 845 846 845 845 845 846 846 846 846 846 846 847 847 847 848 848 849 849 849 849
786 786 786 783 788 790 793 802 805 808 812 807 808 807 800 799 798 797 793 790 789 789 790 789 794 790 789 793 790 795 799 796 797 796 799 802 804 807 809 812 814 816 818 820 822 824 826 827 829 831 833 835 836 837 839 840 841 842 842 843 843 844 844 844 844 845 845 845 844 845 845 845 845 845 845 845 846 846 846 846 846 846 846 847 847 847 847 847 848 848 848 848 849 849 849 849 850
785 785 783 781 786 788 796 808 808 810 809 802 805 805 799 795 796 797 792 790 789 788 789 790 793 792 793 793 791 795 796 797 798 797 799 803 806 808 810 813 815 817 819 821 823 825 826 827 829 831 833 835 837 838 840 841 842 843 843 844 844 845 845 845 845 845 846 846 845 845 845 845 845 845 845 846 846 846 847 847 847 847 847 848 848 848 848 848 848 849 849 849 849 849 850 850 850
786 786 783 785 788 788 803 812 807 808 804 799 802 802 798 795 794 795 794 793 792 789 788 789 788 792 798 795 794 796 796 798 797 798 800 803 807 809 811 814 816 818 820 822 824 825 826 828 830 832 833 835 837 839 841 842 843 844 844 844 845 846 846 846 846 846 846 847 846 846 846 846 846 846 846 846 846 847 847 848 848 848 848 849 849 850 849 850 849 849 849 850 850 850 851 851 851
787 788 787 793 799 797 807 811 804 805 803 799 799 798 798 795 794 795 796 796 795 792 789 789 787 795 800 792 797 799 797 799 798 800 802 804 808 810 813 814 817 818 820 822 824 826 827 828 830 832 834 836 838 840 841 842 843 844 845 845 846 847 847 847 847 847 847 848 847 847 847 847 847 846 846 846 846 846 847 848 848 848 849 849 850 850 850 850 850 850 850 850 850 851 851 851 852
785 789 792 798 804 806 809 809 804 802 803 802 799 798 797 795 794 795 795 794 794 792 790 788 788 797 798 793 799 798 797 801 801 802 803 806 809 811 814 815 817 819 821 823 825 827 827 829 831 832 834 836 838 840 841 843 844 845 846 846 847 848 848 848 848 848 848 848 848 848 848 847 847 847 847 847 847 847 847 848 849 849 849 849 850 850 851 851 851 851 851 851 851 851 851 852 852
786 789 794 800 806 812 813 809 805 802 803 801 798 798 796 795 794 795 795 794 792 792 790 787 790 795 795 796 801 798 799 802 802 804 805 807 809 812 814 816 818 819 822 824 826 827 828 830 831 833 834 836 838 840 841 843 844 845 846 847 847 848 848 849 849 849 849 849 849 849 848 848 847 847 847 847 847 847 847 848 849 850 850 850 850 850 851 851 852 852 852 851 851 851 852 852 852
792 791 792 804 811 814 812 808 805 801 800 799 797 796 794 793 794 795 795 794 791 792 790 789 794 793 794 797 800 800 802 803 803 805 806 808 810 812 815 817 819 821 823 824 826 828 829 831 832 834 834 836 838 839 841 843 844 845 846 847 848 848 849 849 850 850 849 849 849 849 849 848 848 848 848 848 848 848 847 848 850 851 850 850 850 851 851 851 852 852 852 852 852 852 852 853 853
797 796 796 809 811 809 804 803 803 799 799 798 798 795 791 792 795 796 796 795 791 792 790 791 792 789 796 799 798 801 802 804 804 806 808 809 811 813 816 818 820 822 824 825 827 828 830 832 833 835 835 837 838 840 841 843 844 845 846 847 848 849 849 850 850 850 849 849 849 850 850 849 849 848 848 848 849 848 848 848 849 851 851 851 851 851 851 852 852 852 853 853 853 853 853 853 853
793 795 800 809 804 801 800 800 799 799 802 798 796 793 789 792 795 794 794 794 791 793 791 787 788 788 797 798 797 800 802 805 805 807 809 809 811 814 816 818 821 823 824 826 827 829 831 832 834 835 836 837 839 840 842 843 845 845 846 847 848 849 850 850 850 850 850 849 849 850 850 850 849 849 848 848 849 849 849 848 849 850 851 852 852 852 853 853 853 853 853 853 853 853 853 853 853
789 789 798 806 799 796 798 799 796 802 804 793 793 792 789 793 792 789 791 794 792 793 790 784 784 791 799 797 797 798 800 805 806 809 809 810 813 814 817 819 822 823 825 826 828 830 831 833 834 836 836 837 839 840 842 843 845 846 847 847 848 849 850 850 850 851 850 850 850 850 851 851 850 850 849 849 850 850 850 849 849 850 851 852 853 853 853 853 854 853 853 853 853 853 853 853 853
788 785 793 803 799 797 797 795 794 801 800 789 792 791 790 792 787 788 790 794 794 788 786 785 785 794 800 798 798 793 796 804 806 809 810 812 814 815 818 820 822 823 825 826 828 830 831 833 834 836 837 837 839 840 842 843 845 846 847 848 849 849 850 850 851 851 851 851 850 851 852 852 852 851 850 850 850 851 851 851 850 851 851 852 852 853 853 854 854 854 854 853 853 853 853 853 853
785 785 795 802 799 799 795 791 792 800 797 789 792 789 791 791 785 788 787 788 791 786 787 789 787 792 795 794 794 790 796 804 805 809 810 813 814 816 819 820 823 823 826 827 828 830 831 833 834 836 837 838 839 840 842 843 845 846 847 848 849 850 850 850 851 852 852 852 851 851 852 853 853 852 851 851 851 851 852 852 851 851 852 852 852 852 853 853 854 854 854 854 854 853 853 853 853
785 791 799 801 798 797 791 789 792 795 793 791 792 788 791 791 786 787 783 784 789 788 789 790 788 789 791 792 792 792 798 803 805 809 810 813 814 816 819 820 822 823 826 827 828 830 831 833 834 835 836 838 839 840 843 844 845 846 847 848 849 850 850 851 852 853 853 853 852 852 853 854 854 854 853 853 852 852 852 853 852 852 852 852 852 852 852 853 853 853 853 853 853 854 854 853 853
789 796 800 798 795 790 783 783 785 787 791 793 790 786 789 791 789 786 785 788 789 790 790 790 790 790 790 792 793 795 799 803 806 808 809 812 813 815 817 819 821 823 825 827 829 830 831 833 834 835 836 838 839 840 843 844 845 846 847 848 849 850 851 852 853 854 854 854 853 853 854 855 855 855 854 854 854 853 853 853 853 853 853 853 853 853 853 852 852 853 853 853 853 854 854 853 853
787 791 795 792 786 780 773 775 781 785 790 791 787 784 789 791 786 785 791 792 791 793 791 789 792 792 791 792 794 797 799 803 805 807 808 810 811 813 815 816 819 821 824 825 828 830 831 833 834 835 836 837 839 840 842 844 845 846 847 848 849 851 852 853 854 855 855 855 854 854 855 854 855 854 854 854 854 854 854 854 854 853 853 853 853 853 853 853 852 852 853 853 853 853 853 853 852
782 783 788 783 777 774 768 772 779 783 785 789 788 785 789 788 782 786 793 792 791 793 789 788 792 792 792 792 793 796 799 802 805 806 808 808 809 812 813 815 818 821 823 824 827 830 831 832 833 835 836 837 839 841 842 843 845 846 847 848 850 851 852 853 854 854 855 855 855 854 854 854 854 854 854 854 853 854 854 854 854 854 854 854 854 854 854 853 853 852 852 853 853 853 853 853 852
778 778 781 775 772 773 769 772 777 779 781 785 786 786 790 785 781 786 792 795 794 789 783 784 786 785 789 791 792 795 798 801 805 806 807 807 808 811 813 815 819 821 823 825 827 829 830 832 833 834 836 837 839 841 842 843 844 846 847 848 850 850 852 853 854 854 854 854 854 854 854 854 854 854 854 854 854 855 854 855 855 855 855 854 854 854 855 854 854 853 853 853 853 853 853 853 852
776 773 773 770 768 772 771 771 774 777 781 783 785 788 787 782 783 786 790 796 790 780 777 779 780 780 785 788 790 794 798 801 804 805 806 807 809 812 815 816 819 821 823 824 826 828 830 832 833 834 835 837 839 840 842 843 844 845 846 848 849 850 852 853 853 854 853 854 853 853 854 854 854 854 854 854 854 854 854 854 854 855 855 855 855 855 855 855 854 854 853 853 853 853 853 853 853
776 773 771 769 767 771 771 769 773 776 781 784 783 782 781 784 787 783 784 788 780 773 775 777 778 779 781 785 789 793 797 800 803 805 805 807 810 813 814 816 818 820 822 824 826 828 830 831 833 834 835 836 838 840 841 843 843 845 846 847 849 850 851 852 852 853 853 853 853 853 853 853 853 854 854 854 854 854 854 854 854 854 854 854 854 855 855 854 855 854 854 853 853 853 853 853 853
776 773 769 768 767 770 769 768 772 775 779 780 778 778 782 787 786 781 782 780 773 774 776 777 779 779 781 785 789 793 796 800 802 805 806 807 810 812 814 816 817 819 821 823 825 828 830 831 832 834 835 836 838 839 841 842 843 844 845 847 849 850 851 851 852 852 852 852 852 853 852 853 853 853 854 854 853 854 854 854 853 854 854 854 854 854 855 854 855 854 854 854 853 853 853 853 852
775 772 768 768 769 769 767 768 772 773 776 775 777 781 782 782 780 780 781 776 772 774 776 777 779 780 782 786 789 792 795 799 802 804 806 807 810 812 814 815 816 819 821 823 825 827 830 831 832 833 835 836 837 838 840 841 843 844 845 847 848 849 850 851 851 852 852 852 852 852 852 853 853 853 853 853 853 854 854 854 854 853 853 854 854 854 854 854 854 854 854 854 853 853 853 853 852
770 769 769 770 771 769 768 770 772 773 774 775 779 783 779 776 778 781 778 773 771 773 777 777 779 781 783 785 789 791 794 797 800 802 804 806 809 811 813 814 816 818 820 823 825 826 829 830 832 833 834 835 836 838 839 841 842 843 845 847 847 848 849 850 851 851 851 852 852 852 852 852 852 853 853 853 853 853 854 854 854 853 853 853 854 854 854 854 854 854 854 854 854 853 853 853 852
763 766 768 771 772 770 770 772 772 772 773 775 780 782 778 775 782 784 776 772 772 776 779 778 780 782 782 785 787 790 793 796 798 801 803 804 807 810 811 813 815 817 820 822 824 825 828 829 831 832 834 835 835 837 839 840 842 843 845 846 847 847 848 849 850 851 851 851 852 852 852 852 852 852 852 853 853 853 853 854 854 854 854 854 854 854 853 853 854 854 854 854 853 853 853 853 853
762 766 769 773 772 771 772 772 772 773 774 774 776 779 777 777 781 780 773 771 774 777 780 779 780 781 781 785 786 788 791 795 797 799 801 802 804 807 809 811 814 817 819 821 822 824 827 828 830 831 833 834 835 837 838 840 841 843 844 845 846 847 848 849 849 850 850 851 851 851 852 851 852 852 852 852 852 853 853 853 853 854 854 854 854 853 853 853 853 854 854 853 853 853 853 853 853
765 766 772 775 774 774 772 770 770 773 775 771 776 784 781 778 778 773 769 770 773 776 779 779 780 780 781 783 785 786 789 793 796 797 799 801 802 804 807 810 813 816 818 820 821 823 826 827 829 831 832 833 834 836 837 839 840 842 844 844 845 846 847 848 849 849 850 850 851 851 851 851 851 852 852 852 852 853 853 853 853 853 854 854 853 853 853 853 853 853 853 853 853 853 853 853 853
767 767 771 773 778 776 768 768 769 771 773 767 777 790 780 771 770 768 766 768 773 777 777 777 779 780 780 782 784 785 787 791 793 795 798 799 801 803 806 809 812 814 816 818 820 822 825 826 828 830 831 832 833 835 836 838 839 841 842 844 845 846 847 848 848 849 849 850 850 850 850 851 851 851 852 852 852 852 852 853 853 853 853 853 853 853 853 853 853 854 853 853 853 853 853 853 853
768 770 770 769 776 772 762 764 767 771 770 764 777 785 771 761 759 761 763 766 772 775 774 774 777 779 779 781 783 784 786 789 792 794 797 798 800 802 805 808 811 813 814 817 819 821 824 825 827 828 830 831 832 834 835 837 838 840 841 843 844 845 846 847 847 848 849 849 850 850 850 850 850 851 852 852 852 852 853 853 853 853 853 853 854 853 853 853 854 854 853 853 853 853 853 853 853
766 772 774 767 767 763 755 758 761 766 766 764 776 777 766 758 752 756 762 764 769 772 771 772 775 777 778 779 781 783 785 788 791 794 796 798 800 802 804 807 810 812 813 816 818 820 822 824 825 827 829 830 832 833 835 837 838 839 841 842 843 844 846 846 847 847 848 849 849 849 849 850 850 850 851 852 852 852 853 853 853 853 853 853 854 854 854 854 854 854 853 852 852 853 853 853 853
762 764 769 763 761 759 753 752 752 757 763 766 769 767 764 757 752 760 764 764 768 769 769 770 773 775 776 778 779 781 784 788 791 793 795 797 799 801 803 806 808 811 813 815 817 819 820 822 824 826 828 830 831 833 834 836 838 839 840 841 843 844 845 846 846 847 848 848 848 849 849 849 850 850 850 851 852 852 852 853 853 853 853 853 853 854 854 854 854 854 853 852 852 853 853 853 853
761 757 757 752 752 754 752 751 750 750 758 764 763 762 760 754 754 764 765 764 767 767 767 768 769 772 773 775 777 780 783 787 790 791 794 796 798 800 802 805 807 810 812 814 816 818 819 822 824 826 828 830 831 832 834 835 837 839 840 841 842 843 845 845 846 847 847 848 848 848 849 849 850 850 850 851 851 852 852 853 853 853 853 853 853 853 853 854 853 853 853 852 852 853 853 853 853
752 752 752 747 744 746 747 748 748 748 755 760 761 762 759 754 758 764 763 764 766 765 765 765 765 769 771 774 776 778 781 786 788 789 793 795 797 799 801 804 806 809 811 813 816 817 818 821 823 825 827 829 831 832 833 834 837 840 841 841 842 843 844 845 846 847 847 848 848 848 849 849 850 850 850 851 851 852 853 853 853 853 853 853 853 853 853 854 853 853 852 852 852 853 853 853 853
740 741 745 745 742 743 742 741 742 745 754 758 758 758 758 756 758 761 762 762 764 764 764 765 765 767 769 772 774 776 779 782 785 788 791 794 796 797 800 803 805 808 810 812 815 816 818 820 823 825 827 829 831 832 834 835 838 841 841 841 842 843 844 845 846 847 847 848 848 848 849 849 850 850 851 851 852 853 853 853 853 852 852 852 852 853 853 853 852 852 852 852 853 852 852 853 853
736 736 740 741 740 741 738 738 741 742 751 756 752 753 755 755 755 757 759 761 764 765 764 765 766 766 768 770 772 774 777 779 782 787 790 792 794 796 799 802 804 807 809 812 813 815 817 819 822 825 827 829 830 832 834 835 837 839 840 840 841 842 844 845 846 847 847 848 848 848 849 850 850 851 851 852 852 853 853 853 852 852 852 852 852 852 852 852 852 852 852 852 852 852 852 853 853
741 736 738 740 739 739 736 738 742 741 748 753 750 753 754 751 752 753 755 759 762 762 763 764 764 764 766 768 771 772 774 778 782 786 788 790 792 794 797 800 803 806 808 811 812 815 819 820 821 823 826 828 829 832 834 834 835 837 838 839 840 842 843 844 846 847 847 847 847 848 849 850 850 851 851 852 852 852 852 852 852 852 852 852 852 851 851 851 851 852 852 852 852 852 852 852 852
744 735 739 743 739 739 741 741 742 742 747 749 748 753 753 747 747 749 751 754 755 756 758 759 760 762 765 766 769 771 774 779 783 785 786 787 790 792 795 798 802 805 807 810 813 816 820 821 821 822 824 826 828 831 833 834 835 836 837 838 840 842 843 844 844 845 846 847 847 848 849 850 850 851 851 852 852 852 852 852 852 852 852 851 851 851 851 851 851 851 852 852 852 852 852 852 853
745 738 743 744 737 741 749 747 743 741 744 746 745 748 749 746 746 746 745 747 748 750 753 754 756 758 761 763 765 768 772 778 781 782 783 785 787 790 794 797 800 804 807 809 812 816 818 819 820 820 822 824 826 829 832 833 834 836 837 838 840 841 842 843 844 845 846 847 847 848 849 850 851 851 851 852 852 852 852 852 852 851 851 851 851 851 851 851 851 851 852 852 852 852 852 853 853
748 740 740 738 734 738 742 742 742 743 745 745 747 754 753 746 747 747 742 744 746 746 749 752 754 755 757 760 763 765 769 774 778 779 780 782 785 788 792 796 800 803 807 808 810 814 816 817 819 820 821 823 824 828 830 832 833 835 836 838 840 841 842 843 844 845 846 847 847 848 849 850 851 851 851 852 852 851 851 851 851 851 851 851 851 851 851 851 851 852 852 852 852 852 853 853 853
749 743 739 733 732 735 736 737 744 754 757 748 750 767 761 742 744 747 741 744 746 744 747 750 752 754 756 759 762 764 766 770 773 775 777 780 783 787 791 795 799 802 804 805 807 811 813 815 818 820 821 822 824 827 829 831 832 834 835 837 839 840 841 843 844 845 846 847 847 848 849 850 850 851 851 851 851 851 851 851 851 851 851 851 851 851 851 851 852 852 852 853 853 853 853 854 854
750 742 739 736 733 735 737 738 746 756 755 742 744 763 759 739 738 740 738 742 745 745 746 746 748 751 754 757 759 761 764 767 770 772 774 778 781 785 789 793 797 799 801 804 807 811 813 815 817 819 820 822 823 826 828 830 831 833 834 835 837 838 840 842 843 844 845 846 847 848 849 850 850 851 851 851 851 851 851 851 851 851 851 851 851 852 852 852 852 852 853 853 853 854 854 854 854
749 735 737 742 739 739 737 739 745 743 739 737 738 749 755 743 731 729 732 738 743 743 743 744 745 748 751 753 754 757 760 763 767 770 772 776 780 783 788 792 794 797 800 803 806 810 812 813 815 817 820 822 823 825 827 829 830 831 833 834 835 836 838 840 842 843 845 846 847 848 849 850 850 851 851 852 851 851 851 852 852 852 852 852 852 852 852 853 853 853 853 853 854 854 854 854 855
742 732 736 739 738 738 734 738 742 734 738 748 742 743 758 749 725 721 728 735 740 738 737 741 742 744 747 749 750 752 755 759 762 766 769 773 778 782 786 790 793 795 797 800 803 807 810 812 814 815 818 821 822 824 826 827 829 830 832 833 834 836 837 839 841 843 845 846 847 848 849 850 850 851 852 852 852 852 852 852 852 852 852 853 853 853 853 853 853 854 854 854 854 854 854 855 856
736 732 736 735 736 736 733 737 738 735 748 755 742 739 754 749 726 723 731 732 731 729 730 736 738 740 743 744 748 750 751 756 759 762 767 771 776 780 784 787 790 792 795 799 802 805 808 811 813 814 816 819 821 823 825 826 827 829 830 831 833 835 836 837 840 842 844 846 847 847 848 849 850 851 851 852 852 852 852 852 852 853 853 853 854 854 854 854 854 854 854 855 855 855 856 856 856
734 735 738 738 739 737 736 735 731 745 760 751 732 729 743 747 727 719 725 721 718 722 727 730 732 736 738 740 744 746 747 751 756 760 764 770 775 778 782 785 787 790 793 798 801 804 807 809 811 813 815 817 820 822 824 825 826 827 829 830 831 833 835 837 839 842 844 845 846 847 848 849 850 850 851 851 852 852 852 852 853 853 854 854 855 855 855 856 856 856 856 856 856 856 857 857 857
736 739 738 742 747 745 746 743 742 759 762 740 723 722 737 747 726 707 709 709 710 716 719 724 729 731 733 735 738 741 744 747 752 758 762 768 773 775 779 782 785 789 791 795 799 802 804 807 809 811 812 815 818 820 822 823 824 825 827 828 830 831 833 836 838 840 842 844 845 846 847 848 849 850 851 851 852 852 852 853 853 854 854 855 856 856 857 857 857 857 857 857 858 858 858 858 858
738 740 737 746 755 758 762 757 755 759 747 727 717 719 732 734 714 700 700 702 706 709 710 716 723 726 728 731 734 737 740 744 749 755 759 765 769 771 776 780 783 787 789 792 796 799 802 805 807 808 810 814 817 818 820 821 822 824 825 827 829 830 832 835 837 839 841 842 844 845 846 847 848 849 850 851 852 852 853 853 854 855 855 856 857 857 857 857 858 858 858 859 859 859 859 859 859
737 737 735 741 748 762 769 758 753 751 739 724 713 718 731 724 706 698 696 700 703 703 706 710 715 719 723 726 729 733 737 741 746 751 757 763 765 768 772 777 780 784 787 790 793 797 800 802 804 807 809 812 815 817 818 819 820 822 824 825 828 829 831 833 835 837 839 841 842 844 845 846 847 849 850 851 852 852 853 854 855 855 856 857 858 858 858 858 859 859 860 860 860 860 860 860 860
731 724 725 731 730 745 756 746 745 744 735 731 723 726 733 723 708 696 690 697 701 700 702 705 709 713 716 721 725 730 734 737 741 747 754 759 762 765 769 773 777 780 784 787 791 794 797 800 802 805 808 810 812 814 815 817 819 821 822 824 826 828 829 832 834 836 837 839 841 843 845 846 847 848 849 850 851 852 853 854 855 856 857 858 858 859 859 859 860 860 861 861 861 861 861 861 862
728 718 722 727 715 721 735 734 731 728 729 735 733 727 715 707 706 697 692 697 698 700 701 703 709 710 713 720 723 726 731 733 737 743 750 755 759 762 765 769 774 777 781 784 788 791 794 797 799 802 805 807 808 811 813 815 817 818 821 823 825 826 828 830 833 834 836 838 840 842 844 845 846 847 848 850 851 852 853 854 856 857 857 858 859 859 860 860 861 862 862 863 863 862 862 862 863
724 721 722 717 704 707 728 738 731 727 736 737 731 725 711 707 710 700 697 701 698 700 702 704 710 711 714 719 720 723 726 728 732 738 744 750 755 759 761 764 769 773 777 780 784 788 791 793 796 798 801 804 806 808 810 813 815 817 819 821 823 824 827 829 831 833 835 837 839 841 843 844 845 847 848 850 851 852 854 855 856 857 858 859 859 860 861 861 862 863 863 864 864 863 863 863 864
719 723 716 708 707 707 718 738 743 743 747 736 726 727 721 719 717 703 700 704 701 701 702 704 709 712 715 718 717 720 721 724 729 734 739 745 751 756 758 761 765 769 774 777 781 785 788 791 793 795 798 800 803 805 808 810 812 815 817 819 821 823 826 828 830 832 834 836 838 840 842 844 845 846 848 850 851 852 854 855 856 857 858 859 860 861 861 862 863 864 864 865 865 864 864 864 865
708 711 704 706 721 721 719 732 743 748 750 737 725 723 718 713 709 703 704 704 701 701 700 702 707 710 714 715 715 718 719 723 728 731 736 741 746 752 755 758 762 766 771 775 779 782 785 789 791 793 796 798 801 803 805 808 810 813 815 817 820 822 825 827 829 831 834 836 838 840 842 843 844 846 848 850 851 852 854 855 856 857 858 859 860 861 862 863 863 864 865 865 865 865 865 865 866
707 706 701 703 716 721 717 720 726 733 742 737 728 725 716 702 692 695 701 698 697 700 699 700 703 706 709 710 712 715 718 722 725 728 733 737 742 748 752 756 759 763 769 772 776 780 782 786 789 791 794 796 799 801 803 806 808 811 814 816 819 822 824 826 828 831 833 835 837 839 841 842 844 846 848 849 851 852 854 855 856 857 858 860 861 862 863 863 864 865 865 866 866 866 866 866 866
719 716 708 707 712 712 713 714 710 715 727 731 732 729 711 689 682 689 693 692 693 695 696 698 698 700 703 704 707 711 715 719 722 725 729 733 740 745 750 754 757 762 766 769 773 777 780 784 786 789 792 794 797 799 802 805 807 810 813 815 818 821 823 825 828 831 833 835 837 839 840 842 843 846 847 849 851 852 854 855 856 857 859 860 861 862 863 863 864 865 865 866 866 867 867 867 868
716 715 708 709 711 710 719 722 710 704 711 714 723 728 706 681 679 685 687 688 688 688 691 694 693 695 698 700 704 708 712 716 719 722 727 732 737 743 748 752 756 760 764 767 771 774 777 781 784 787 790 792 795 797 800 803 805 809 812 814 817 819 821 824 827 830 832 834 836 838 839 841 843 845 847 849 850 851 853 854 856 857 859 860 861 862 863 863 864 865 865 866 867 868 868 868 868